Regional Weather Roundup
Issued by NWS Cleveland, OH

Home | Current Version | Previous Version | Text Only | Print | Product List | Glossary Off
Versions: 1 2 3 4 5 6 7 8 9 10 11 12 13 14 15 16 17 18 19 20 21 22 23 24 25 26 27 28 29 30 31 32 33 34 35 36 37 38 39 40 41 42 43 44 45 46 47 48 49 50

000
ASUS41 KCLE 231300
RWRCLE
OHIO REGIONAL WEATHER ROUNDUP
NATIONAL WEATHER SERVICE WILMINGTON, OH
900 AM EDT SAT AUG 23 2014

NOTE: "FAIR" INDICATES FEW OR NO CLOUDS BELOW 12,000 FEET WITH NO
SIGNIFICANT WEATHER AND/OR OBSTRUCTIONS TO VISIBILITY.

OHZ001>008-015>018-024>027-034-035-043-044-231400-
   NORTHWEST OHIO

CITY           SKY/WX    TMP DP  RH WIND       PRES   REMARKS
DEFIANCE       CLOUDY    70  68  93 E5        30.02S FOG
FINDLAY        FOG       71  69  93 E6        30.02R VSB 1
TOLEDO EXPRESS PTSUNNY   71  66  84 NE6       30.02S
TOLEDO METCALF CLOUDY    72  67  84 NE5       30.04R
LIMA           CLOUDY    73  68  84 SE6       30.02S HAZE
$$

OHZ009>014-019>023-028>033-038-089-231400-
   NORTHEAST OHIO

CITY           SKY/WX    TMP DP  RH WIND       PRES   REMARKS
CLE-HOPKINS    PTSUNNY   72  68  87 NE9       30.04F
CLE-LAKEFRONT  PTSUNNY   72  67  84 E8        30.02S
CUY CO. ARPT   MOSUNNY   72  70  94 E12       30.04F
LORAIN-ELYRIA  CLOUDY    75  69  81 E8        30.03F
ASHTABULA      CLOUDY    69  66  90 NE7       30.04F FOG
AKRON-CANTON   MOSUNNY   71  66  84 NE7       30.03F HAZE
WOOSTER        NOT AVBL
MANSFIELD      FOG       68  68 100 NE3       30.04S VSB 1/4
YOUNGSTOWN     CLOUDY    66  65  96 NE7       30.04S FOG
$$

OHZ042-051>053-060>062-070>072-077>081-231400-
  SOUTHWEST OHIO

CITY           SKY/WX    TMP DP  RH WIND       PRES   REMARKS
CINC-COVINGTON MOSUNNY   78  73  84 CALM      30.02R
CINC-LUNKEN    PTSUNNY   73  73 100 NE3       30.01S FOG
HAMILTON       SUNNY     76  74  93 CALM      30.01F
DAYTON         NOT AVBL
WRIGHT-PAT AFB NOT AVBL
DAYTON GENERAL FOG       73  73 100 CALM      30.02R VSB 1/2
WILMINGTON     SUNNY     73  71  93 CALM      30.02S FOG
$$

OHZ036-037-039>041-045>050-054>059-063>069-073>076-082>088-231400-
  CENTRAL AND SOUTHEAST OHIO

CITY           SKY/WX    TMP DP  RH WIND       PRES   REMARKS
COLUMBUS       MOSUNNY   75  69  81 CALM      30.01S HAZE
OSU AIRPORT    CLOUDY    71  69  93 NE3       30.02R FOG
BOLTON FIELD   NOT AVBL
RICKENBACK AFB NOT AVBL
NEWARK         CLOUDY    70  69  97 NE5       30.01S FOG
MARION         FOG       69  67  93 CALM      30.03S VSB 3/4
LANCASTER      FOG       71  69  93 CALM      30.01S VSB 1/4
ZANESVILLE     CLOUDY    70  68  93 NE3       30.02S FOG
NEW PHILLY     CLOUDY    71  69  93 N3        30.03S FOG
$$



USA.gov is the U.S. government's official web portal to all federal, state and local government web resources and services.